GW5197 Weather Reports


Display with metric or nautical units.
time (UTC)temp
F
wind
direction
speed
MPH
gust
MPH
rain 1hr
in
rain 24hr
in
rain mn
in
humidity
%
barometer
mb
20260505200658 77 50 1.0 2.0 0.00 0.00 0.00 40 1014.0
20260505200157 77 199 3.0 5.0 0.00 0.00 0.00 41 1014.0
20260505195657 77 280 3.0 4.0 0.00 0.00 0.00 41 1014.0
20260505195157 76 254 3.0 4.0 0.00 0.00 0.00 42 1015.0
20260505194657 76 211 3.0 5.0 0.00 0.00 0.00 42 1015.0
20260505194157 76 316 3.0 4.0 0.00 0.00 0.00 41 1015.0
20260505193657 76 233 4.0 6.0 0.00 0.00 0.00 41 1015.0
20260505193157 76 192 2.0 3.0 0.00 0.00 0.00 41 1015.0
20260505192658 76 294 4.0 7.0 0.00 0.00 0.00 41 1015.0
20260505192157 76 242 3.0 4.0 0.00 0.00 0.00 40 1015.0
20260505191658 76 237 4.0 6.0 0.00 0.00 0.00 42 1015.0
20260505191159 76 208 3.0 4.0 0.00 0.00 0.00 43 1015.0
20260505190657 75 266 2.0 5.0 0.00 0.00 0.00 41 1015.0
20260505190158 75 205 2.0 3.0 0.00 0.00 0.00 44 1015.0
20260505185658 75 268 2.0 3.0 0.00 0.00 0.00 42 1015.0
20260505185158 75 233 4.0 5.0 0.00 0.00 0.00 42 1015.0
20260505184658 75 319 1.0 2.0 0.00 0.00 0.00 42 1015.0
20260505184158 75 227 2.0 4.0 0.00 0.00 0.00 42 1015.0
20260505183657 75 268 2.0 4.0 0.00 0.00 0.00 43 1015.0
20260505183157 75 303 4.0 7.0 0.00 0.00 0.00 43 1015.0
20260505182658 74 299 4.0 8.0 0.00 0.00 0.00 44 1015.0
20260505182159 74 216 3.0 4.0 0.00 0.00 0.00 44 1015.0
20260505181657 74 268 3.0 4.0 0.00 0.00 0.00 45 1015.0
20260505181159 74 263 3.0 6.0 0.00 0.00 0.00 44 1016.0
20260505180657 74 120 1.0 3.0 0.00 0.00 0.00 45 1016.0
20260505180158 74 235 3.0 5.0 0.00 0.00 0.00 43 1016.0
20260505175658 74 212 2.0 7.0 0.00 0.00 0.00 46 1016.0
20260505175158 74 275 2.0 3.0 0.00 0.00 0.00 46 1016.0
20260505174658 74 189 2.0 4.0 0.00 0.00 0.00 45 1016.0
20260505174157 73 267 4.0 4.0 0.00 0.00 0.00 45 1016.0
20260505173657 73 257 3.0 5.0 0.00 0.00 0.00 45 1016.0
20260505173157 73 306 3.0 4.0 0.00 0.00 0.00 45 1016.0
20260505172657 73 266 3.0 4.0 0.00 0.00 0.00 45 1016.0
20260505172157 73 289 5.0 8.0 0.00 0.00 0.00 44 1016.0
20260505171658 73 286 6.0 10.0 0.00 0.00 0.00 43 1016.0
20260505171157 73 255 5.0 7.0 0.00 0.00 0.00 46 1016.0
20260505170657 74 313 4.0 9.0 0.00 0.00 0.00 46 1016.0
20260505170157 74 234 3.0 4.0 0.00 0.00 0.00 46 1016.0
20260505165657 74 254 4.0 6.0 0.00 0.00 0.00 45 1016.0
20260505165158 74 267 2.0 3.0 0.00 0.00 0.00 47 1016.0
20260505164657 74 285 4.0 7.0 0.00 0.00 0.00 46 1016.0
20260505164158 74 156 2.0 4.0 0.00 0.00 0.00 46 1016.0
20260505163658 74 218 3.0 5.0 0.00 0.00 0.00 47 1016.0
20260505163158 74 296 3.0 6.0 0.00 0.00 0.00 47 1016.0
20260505162657 73 311 3.0 5.0 0.00 0.00 0.00 48 1016.0
20260505162206 73 223 3.0 7.0 0.00 0.00 0.00 48 1016.0
20260505161658 73 306 4.0 8.0 0.00 0.00 0.00 47 1016.0
20260505161158 73 276 3.0 5.0 0.00 0.00 0.00 47 1016.0
20260505160658 73 315 3.0 6.0 0.00 0.00 0.00 48 1016.0
20260505160158 72 249 4.0 6.0 0.00 0.00 0.00 47 1016.0
20260505153157 73 273 2.0 4.0 0.00 0.00 0.00 49 1016.0
20260505152700 73 257 6.0 7.0 0.00 0.00 0.00 48 1016.0
20260505152159 73 3 1.0 2.0 0.00 0.00 0.00 49 1016.0
20260505151658 73 184 1.0 1.0 0.00 0.00 0.00 48 1016.0
20260505151157 73 276 2.0 4.0 0.00 0.00 0.00 51 1016.0
20260505150658 73 226 2.0 2.0 0.00 0.00 0.00 53 1017.0
20260505150157 72 337 0.0 2.0 0.00 0.00 0.00 54 1017.0
20260505140157 66 17 1.0 2.0 0.00 0.00 0.00 66 1016.0
20260505130157 60 331 1.0 2.0 0.00 0.00 0.00 71 1016.0
20260505124657 58 118 0.0 2.0 0.00 0.00 0.00 76 1016.0
20260505124157 58 110 1.0 2.0 0.00 0.00 0.00 77 1016.0
20260505123657 58 336 0.0 2.0 0.00 0.00 0.00 76 1016.0
20260505123157 58 121 0.0 1.0 0.00 0.00 0.00 76 1016.0
20260505122658 58 221 0.0 1.0 0.00 0.00 0.00 76 1016.0
20260505122157 58 220 1.0 2.0 0.00 0.00 0.00 76 1016.0
20260505121658 57 252 0.0 1.0 0.00 0.00 0.00 78 1016.0
20260505121158 57 240 2.0 4.0 0.00 0.00 0.00 77 1016.0
20260505120658 57 260 2.0 2.0 0.00 0.00 0.00 77 1016.0
20260505120158 56 240 2.0 3.0 0.00 0.00 0.00 77 1016.0
20260505115658 56 260 2.0 3.0 0.00 0.00 0.00 77 1016.0
20260505115157 56 262 2.0 4.0 0.00 0.00 0.00 78 1016.0
20260505114657 55 275 1.0 2.0 0.00 0.00 0.00 79 1016.0
20260505114157 55 237 2.0 4.0 0.00 0.00 0.00 79 1015.0
20260505113658 55 256 1.0 3.0 0.00 0.00 0.00 80 1015.0
20260505113157 55 72 1.0 2.0 0.00 0.00 0.00 80 1015.0
20260505112658 55 151 2.0 3.0 0.00 0.00 0.00 80 1015.0
20260505112157 54 212 1.0 2.0 0.00 0.00 0.00 79 1015.0
20260505111657 54 227 2.0 4.0 0.00 0.00 0.00 79 1015.0
20260505111158 54 229 2.0 4.0 0.00 0.00 0.00 79 1015.0
20260505110657 54 232 2.0 4.0 0.00 0.00 0.00 79 1015.0
20260505110157 54 216 1.0 3.0 0.00 0.00 0.00 78 1015.0
20260505102159 55 269 2.0 5.0 0.00 0.00 0.00 76 1015.0
20260505101659 55 227 1.0 3.0 0.00 0.00 0.00 76 1015.0
20260505101159 55 121 1.0 3.0 0.00 0.00 0.00 75 1015.0
20260505100700 55 229 2.0 3.0 0.00 0.00 0.00 76 1015.0
20260505100159 55 164 1.0 3.0 0.00 0.00 0.00 76 1015.0
20260505095658 56 88 1.0 2.0 0.00 0.00 0.00 75 1015.0
20260505095159 56 238 1.0 2.0 0.00 0.00 0.00 72 1015.0
20260505094659 56 68 0.0 2.0 0.00 0.00 0.00 71 1015.0
20260505094159 57 211 0.0 1.0 0.00 0.00 0.00 71 1015.0
20260505093658 57 235 0.0 2.0 0.00 0.00 0.00 69 1015.0
20260505093158 57 198 0.0 1.0 0.00 0.00 0.00 69 1015.0
20260505092659 57 222 1.0 3.0 0.00 0.00 0.00 68 1015.0
20260505092159 58 237 1.0 3.0 0.00 0.00 0.00 68 1015.0
20260505091703 58 211 0.0 1.0 0.00 0.00 0.00 66 1015.0
20260505091157 58 202 1.0 1.0 0.00 0.00 0.00 65 1015.0
20260505090659 58 221 2.0 3.0 0.00 0.00 0.00 65 1015.0
20260505090159 58 216 1.0 2.0 0.00 0.00 0.00 65 1015.0
20260505085659 58 207 0.0 2.0 0.00 0.00 0.00 65 1015.0
20260505085159 58 222 1.0 3.0 0.00 0.00 0.00 65 1015.0
20260505084659 57 209 1.0 2.0 0.00 0.00 0.00 67 1015.0
20260505084158 57 204 1.0 1.0 0.00 0.00 0.00 68 1015.0
20260505083657 57 216 0.0 1.0 0.00 0.00 0.00 68 1015.0
20260505083158 56 160 0.0 1.0 0.00 0.00 0.00 71 1015.0
20260505082657 56 188 0.0 1.0 0.00 0.00 0.00 72 1015.0
20260505082159 55 289 1.0 2.0 0.00 0.00 0.00 77 1015.0
20260505081700 55 0 0.0 0.0 0.00 0.00 0.00 75 1015.0
20260505081200 55 226 0.0 3.0 0.00 0.00 0.00 76 1015.0
20260505080700 54 255 1.0 3.0 0.00 0.00 0.00 78 1015.0
20260505080159 54 284 2.0 4.0 0.00 0.00 0.00 81 1015.0
20260505075657 54 209 0.0 2.0 0.00 0.00 0.00 80 1015.0
20260505075159 54 53 0.0 2.0 0.00 0.00 0.00 80 1015.0
20260505074659 55 72 1.0 2.0 0.00 0.00 0.00 80 1015.0
20260505074159 55 345 1.0 2.0 0.00 0.00 0.00 79 1015.0
20260505073706 55 100 1.0 2.0 0.00 0.00 0.00 79 1015.0
20260505073200 55 257 2.0 3.0 0.00 0.00 0.00 79 1015.0
20260505072659 55 280 2.0 3.0 0.00 0.00 0.00 80 1015.0
20260505072200 55 161 1.0 2.0 0.00 0.00 0.00 79 1015.0
20260505071658 56 57 1.0 2.0 0.00 0.00 0.00 78 1015.0
20260505071159 56 313 1.0 2.0 0.00 0.00 0.00 77 1015.0
20260505070701 56 100 0.0 2.0 0.00 0.00 0.00 76 1015.0
20260505070159 56 115 1.0 2.0 0.00 0.00 0.00 76 1015.0
20260505065657 56 145 1.0 2.0 0.00 0.00 0.00 76 1015.0
20260505065159 55 147 1.0 2.0 0.00 0.00 0.00 77 1015.0
20260505064659 55 191 1.0 2.0 0.00 0.00 0.00 78 1015.0
20260505064157 55 349 0.0 1.0 0.00 0.00 0.00 78 1015.0
20260505063657 55 202 0.0 2.0 0.00 0.00 0.00 78 1015.0
20260505063158 55 150 0.0 2.0 0.00 0.00 0.00 77 1015.0
20260505062659 56 144 0.0 1.0 0.00 0.00 0.00 77 1015.0
20260505062200 56 105 0.0 2.0 0.00 0.00 0.00 77 1015.0
20260505061658 56 239 1.0 2.0 0.00 0.00 0.00 75 1015.0
20260505061158 56 76 0.0 1.0 0.00 0.00 0.00 75 1015.0
20260505060659 57 150 0.0 1.0 0.00 0.00 0.00 74 1015.0
20260505060158 57 102 1.0 2.0 0.00 0.00 0.00 73 1015.0
20260505055657 58 61 0.0 1.0 0.00 0.00 0.00 72 1015.0
20260505055157 58 102 0.0 2.0 0.00 0.00 0.00 71 1015.0
20260505054658 58 169 0.0 0.0 0.00 0.00 0.00 71 1016.0
20260505054157 58 203 0.0 1.0 0.00 0.00 0.00 69 1015.0
20260505053658 59 230 1.0 1.0 0.00 0.00 0.00 69 1015.0
20260505053158 59 242 0.0 1.0 0.00 0.00 0.00 68 1015.0
20260505052657 59 238 1.0 2.0 0.00 0.00 0.00 66 1015.0
20260505052158 59 198 0.0 0.0 0.00 0.00 0.00 67 1015.0
20260505051657 59 195 0.0 1.0 0.00 0.00 0.00 67 1015.0
20260505051157 59 233 0.0 0.0 0.00 0.00 0.00 67 1015.0
20260505050657 59 237 0.0 2.0 0.00 0.00 0.00 67 1015.0
20260505050158 59 220 0.0 2.0 0.00 0.00 0.00 67 1015.0
20260505041657 60 227 0.0 1.0 0.00 0.00 0.00 65 1015.0
20260505041158 61 253 0.0 0.0 0.00 0.00 0.00 64 1015.0
20260505040657 61 143 0.0 1.0 0.00 0.00 0.00 64 1015.0
20260505040158 61 107 0.0 1.0 0.00 0.00 0.00 64 1015.0
20260505035657 61 230 0.0 1.0 0.00 0.00 0.00 63 1015.0
20260505035158 61 38 0.0 1.0 0.00 0.00 0.00 62 1015.0
20260505034657 62 280 0.0 1.0 0.00 0.00 0.00 62 1015.0
20260505034159 62 164 0.0 1.0 0.00 0.00 0.00 61 1015.0
20260505033658 62 277 0.0 1.0 0.00 0.00 0.00 59 1016.0
20260505033158 63 264 0.0 1.0 0.00 0.00 0.00 59 1016.0
20260505032658 63 168 0.0 1.0 0.00 0.00 0.00 59 1015.0
20260505032205 63 184 1.0 2.0 0.00 0.00 0.00 60 1016.0
20260505031657 63 331 0.0 1.0 0.00 0.00 0.00 58 1016.0
20260505031157 62 218 1.0 2.0 0.00 0.00 0.00 58 1016.0
20260505030658 62 268 0.0 1.0 0.00 0.00 0.00 58 1016.0
20260505030157 62 193 0.0 1.0 0.00 0.00 0.00 58 1015.0
20260505025658 62 160 0.0 1.0 0.00 0.00 0.00 57 1015.0
20260505025157 63 198 0.0 1.0 0.00 0.00 0.00 56 1015.0
20260505024657 63 10 0.0 1.0 0.00 0.00 0.00 56 1015.0
20260505024157 63 167 0.0 0.0 0.00 0.00 0.00 55 1015.0
20260505023657 64 83 0.0 1.0 0.00 0.00 0.00 55 1015.0
20260505023158 64 0 0.0 0.0 0.00 0.00 0.00 54 1015.0
20260505022657 64 143 0.0 1.0 0.00 0.00 0.00 54 1015.0
20260505022157 64 0 0.0 0.0 0.00 0.00 0.00 54 1015.0
20260505021658 64 311 0.0 1.0 0.00 0.00 0.00 52 1015.0
20260505021158 65 111 0.0 1.0 0.00 0.00 0.00 52 1015.0
20260505020658 65 175 0.0 1.0 0.00 0.00 0.00 52 1015.0
20260505020200 65 200 0.0 1.0 0.00 0.00 0.00 52 1015.0
20260505015657 65 200 0.0 0.0 0.00 0.00 0.00 51 1015.0
20260505015157 66 177 0.0 1.0 0.00 0.00 0.00 51 1015.0
20260505014658 66 175 0.0 0.0 0.00 0.00 0.00 50 1015.0
20260505014158 66 199 0.0 1.0 0.00 0.00 0.00 49 1015.0
20260505013657 66 325 0.0 0.0 0.00 0.00 0.00 50 1015.0
20260505013158 66 212 0.0 1.0 0.00 0.00 0.00 51 1015.0
20260505012707 66 308 0.0 1.0 0.00 0.00 0.00 50 1015.0
20260505012157 66 202 0.0 1.0 0.00 0.00 0.00 50 1015.0
20260505011659 67 134 0.0 2.0 0.00 0.00 0.00 51 1015.0
20260505011159 67 164 0.0 0.0 0.00 0.00 0.00 50 1015.0
20260505010658 68 138 0.0 0.0 0.00 0.00 0.00 50 1015.0
20260505010158 68 183 0.0 1.0 0.00 0.00 0.00 48 1015.0
20260505005657 69 116 0.0 1.0 0.00 0.00 0.00 48 1015.0
20260505005158 69 0 0.0 0.0 0.00 0.00 0.00 46 1015.0
20260505004657 70 172 0.0 1.0 0.00 0.00 0.00 45 1015.0
20260505004157 70 85 0.0 1.0 0.00 0.00 0.00 45 1015.0
20260505003657 71 112 0.0 1.0 0.00 0.00 0.00 43 1015.0
20260505003158 71 166 0.0 1.0 0.00 0.00 0.00 44 1015.0
20260505002658 71 259 0.0 1.0 0.00 0.00 0.00 44 1015.0
20260505002157 72 221 0.0 1.0 0.00 0.00 0.00 41 1015.0
20260505001658 72 276 0.0 1.0 0.00 0.00 0.00 42 1015.0
20260505001157 72 260 1.0 2.0 0.00 0.00 0.00 41 1015.0
20260505000658 73 289 0.0 1.0 0.00 0.00 0.00 40 1014.0
20260505000157 73 291 0.0 1.0 0.00 0.00 0.00 40 1014.0
20260504235657 73 125 0.0 2.0 0.00 0.00 0.00 39 1014.0
20260504235157 73 280 0.0 1.0 0.00 0.00 0.00 39 1014.0
20260504234657 73 175 0.0 1.0 0.00 0.00 0.00 38 1014.0
20260504234157 74 316 2.0 4.0 0.00 0.00 0.00 38 1014.0
20260504233658 74 319 1.0 2.0 0.00 0.00 0.00 39 1014.0
20260504233157 74 261 2.0 3.0 0.00 0.00 0.00 38 1014.0
20260504232657 74 259 2.0 4.0 0.00 0.00 0.00 39 1014.0
20260504232159 74 285 2.0 4.0 0.00 0.00 0.00 38 1014.0
20260504231659 75 275 0.0 0.0 0.00 0.00 0.00 39 1014.0
20260504231158 75 316 1.0 3.0 0.00 0.00 0.00 38 1014.0
20260504230658 75 268 3.0 6.0 0.00 0.00 0.00 38 1014.0
20260504230159 75 314 2.0 4.0 0.00 0.00 0.00 40 1014.0
20260504225657 75 278 2.0 4.0 0.00 0.00 0.00 39 1014.0
20260504225158 75 225 2.0 4.0 0.00 0.00 0.00 39 1014.0
20260504224657 75 246 2.0 3.0 0.00 0.00 0.00 39 1014.0
20260504224157 75 201 1.0 2.0 0.00 0.00 0.00 39 1014.0
20260504223658 75 334 1.0 4.0 0.00 0.00 0.00 40 1014.0
20260504223157 75 196 1.0 2.0 0.00 0.00 0.00 39 1014.0
20260504222658 75 208 1.0 2.0 0.00 0.00 0.00 39 1014.0
20260504222158 75 301 2.0 4.0 0.00 0.00 0.00 38 1014.0
20260504221700 76 322 2.0 4.0 0.00 0.00 0.00 39 1014.0
20260504221159 76 74 1.0 2.0 0.00 0.00 0.00 39 1014.0
20260504220700 76 44 2.0 4.0 0.00 0.00 0.00 38 1014.0
20260504220159 76 323 0.0 1.0 0.00 0.00 0.00 37 1014.0
20260504215659 76 359 2.0 2.0 0.00 0.00 0.00 37 1014.0
20260504215159 76 286 4.0 5.0 0.00 0.00 0.00 36 1014.0
20260504214658 76 171 0.0 2.0 0.00 0.00 0.00 37 1014.0
20260504214159 76 264 4.0 5.0 0.00 0.00 0.00 36 1014.0
20260504213658 76 153 1.0 2.0 0.00 0.00 0.00 37 1014.0
20260504213159 76 284 2.0 3.0 0.00 0.00 0.00 38 1014.0
20260504212657 76 273 1.0 3.0 0.00 0.00 0.00 39 1014.0
20260504212159 76 306 2.0 2.0 0.00 0.00 0.00 39 1014.0
20260504211659 76 209 0.0 2.0 0.00 0.00 0.00 38 1014.0
20260504211200 75 322 2.0 3.0 0.00 0.00 0.00 40 1014.0
20260504210659 76 297 4.0 7.0 0.00 0.00 0.00 39 1014.0
20260504210200 76 217 1.0 2.0 0.00 0.00 0.00 39 1014.0
20260504205659 76 287 1.0 3.0 0.00 0.00 0.00 37 1015.0
20260504205159 76 308 2.0 5.0 0.00 0.00 0.00 37 1015.0
20260504204659 76 304 5.0 8.0 0.00 0.00 0.00 37 1014.0
20260504204158 76 297 1.0 2.0 0.00 0.00 0.00 39 1014.0
20260504203700 76 289 3.0 4.0 0.00 0.00 0.00 38 1014.0
20260504203159 76 278 1.0 3.0 0.00 0.00 0.00 39 1014.0
20260504202659 76 234 3.0 4.0 0.00 0.00 0.00 38 1015.0
20260504202157 76 45 1.0 2.0 0.00 0.00 0.00 38 1015.0
20260504201657 76 288 2.0 4.0 0.00 0.00 0.00 38 1015.0
20260504201159 76 263 2.0 3.0 0.00 0.00 0.00 37 1015.0